Temp
49 49 49 48 48 48 49 49 49 49 48 49 49 49 49 49 49 43 40 41 38 31 33 36 36 31 32 31 26 31 29 29 27 24 24 26 24 30 29 31 32 30 29 27 29 25 23 44 41 37 42 44 47 46
48 48 48 48 48 48 48 48 48 48 48 48 48 48 48 49 49 43 38 42 42 34 34 39 40 41 40 39 33 32 30 28 30 26 27 27 24 26 29 23 36 27 34 32 33 33 40 42 43 45 46 45 45 44
48 48 48 47 46 47 47 47 47 46 47 48 48 48 48 48 48 46 40 39 38 33 32 33 33 39 42 41 43 31 33 37 34 35 29 28 23 31 24 28 31 38 40 32 34 40 41 41 44 46 46 45 46 45
47 47 48 48 47 47 47 46 46 46 47 47 48 47 48 48 48 47 40 40 38 34 26 31 41 37 44 42 40 40 38 40 38 35 29 26 24 33 28 31 28 33 33 35 35 39 39 43 44 46 45 45 44 42
47 47 47 47 47 46 46 47 47 46 46 46 47 47 47 47 47 44 40 40 41 34 25 27 36 41 42 40 38 38 36 35 32 28 27 25 31 29 31 30 27 36 34 31 33 42 41 43 46 45 44 45 45 43
46 46 46 46 46 46 46 46 46 46 46 46 46 47 47 47 47 40 32 39 41 40 30 24 36 36 40 39 37 35 35 34 32 29 28 31 37 33 26 28 39 42 42 41 37 42 43 43 44 46 46 46 45 43
46 46 46 46 46 46 46 46 46 46 46 46 46 46 46 46 42 34 32 39 43 40 30 27 28 36 39 39 34 33 35 32 32 30 29 31 32 33 28 24 38 40 40 39 40 41 41 41 43 45 46 44 41 39
46 46 45 46 46 46 46 45 45 45 46 46 46 46 46 45 42 36 40 44 43 34 33 27 28 30 35 31 29 33 30 30 31 31 33 31 33 32 26 36 40 40 41 40 40 42 43 43 43 42 40 38 37 35
45 45 45 45 46 45 45 45 45 45 46 46 45 44 41 37 33 37 45 43 41 36 29 29 26 24 34 33 32 32 34 27 33 29 31 32 29 27 33 37 37 38 39 40 40 41 41 40 42 40 38 37 37 34
45 45 45 45 45 45 45 45 45 45 46 44 41 35 31 37 46 44 38 33 32 34 32 28 31 26 32 31 29 30 31 29 26 31 32 29 29 36 40 39 38 39 40 41 38 36 37 37 38 37 38 38 39 37
45 45 45 45 45 45 45 45 45 45 43 38 33 31 38 43 37 33 28 28 29 25 29 30 30 28 33 27 28 31 29 29 24 27 28 26 26 32 36 36 38 38 40 41 43 43 42 42 40 38 36 37 37 36
46 45 45 45 45 45 45 45 45 41 38 39 38 39 36 33 28 26 22 26 26 26 29 28 30 30 32 35 29 30 28 28 24 29 26 22 29 34 33 33 35 36 38 40 42 42 41 40 39 38 36 34 33 32
45 45 45 45 45 45 45 45 45 45 43 38 35 31 29 27 15 18 13 22 21 27 31 30 28 31 33 34 30 28 22 22 29 24 23 27 31 33 33 34 34 35 37 37 36 36 36 35 34 34 31 28 29 28
45 45 45 45 44 44 44 45 45 44 39 31 28 18 20 14 20 21 25 22 28 32 31 32 30 29 31 27 28 22 25 28 23 21 23 31 33 32 33 34 33 32 31 32 32 30 27 25 22 23 24 26 27 26
45 44 44 44 44 44 44 45 45 41 36 29 29 18 21 24 24 26 28 29 30 33 31 31 32 31 28 24 26 26 24 21 25 24 28 31 33 32 32 31 30 28 28 26 26 23 22 21 23 23 22 24 24 22
45 44 40 44 44 44 44 43 41 38 34 30 29 26 27 27 24 24 24 27 32 32 33 33 30 28 26 27 24 24 21 20 25 27 29 31 32 32 31 31 30 29 27 25 23 22 22 21 22 22 22 20 19 20
43 38 44 44 44 44 44 40 37 32 30 28 26 29 28 27 28 27 26 31 35 31 29 30 25 26 29 24 24 28 24 27 25 29 30 31 31 32 31 29 25 27 24 24 24 24 22 22 24 27 25 24 24 24
38 42 44 45 44 42 40 38 34 31 28 30 28 28 29 29 28 29 30 32 32 32 32 29 30 26 23 22 24 28 26 24 29 30 31 30 31 32 31 29 27 29 27 27 29 28 28 29 29 27 26 25 24 24
40 41 44 44 42 38 34 34 35 28 30 31 29 27 28 29 30 31 32 32 34 35 33 31 27 25 26 28 27 25 22 26 28 29 31 29 31 28 28 29 29 30 29 31 31 30 31 31 29 28 27 27 25 24
43 43 43 44 42 35 32 32 36 31 28 28 28 27 28 28 29 29 31 34 34 31 30 29 28 29 28 29 30 31 30 29 30 28 29 32 31 30 29 31 31 32 31 31 31 30 29 29 29 29 28 27 25 23
38 38 42 42 38 36 33 31 31 31 29 27 28 28 27 29 29 28 29 33 32 31 28 30 29 27 30 29 30 31 30 31 30 31 31 30 31 31 31 31 31 31 30 29 28 28 29 29 29 30 29 28 26 25
33 42 37 39 33 34 32 32 29 31 28 29 28 29 26 22 24 26 30 29 29 29 29 30 30 31 31 31 31 33 33 32 32 30 28 31 30 29 30 31 30 29 29 29 30 29 30 31 31 30 29 26 23 23
39 36 33 34 26 24 26 32 28 29 25 24 27 26 23 22 26 30 24 28 27 27 27 29 31 33 31 32 33 33 33 33 31 31 30 30 31 31 31 31 32 31 30 30 32 31 30 30 30 29 29 26 25 23
39 32 26 24 24 14 23 19 29 29 26 26 24 21 24 22 27 24 23 27 26 25 27 28 30 30 31 32 31 32 32 33 31 30 31 31 29 30 32 32 32 33 33 33 32 31 31 31 30 29 29 27 26 24
25 22 20 11 21 23 22 21 19 25 17 21 23 19 20 26 21 19 22 24 25 25 26 27 30 31 30 30 31 31 34 35 33 31 32 33 32 31 31 31 32 33 33 31 30 31 31 31 30 29 29 28 26 24
17 17 16 16 14 21 21 16 16 20 18 13 16 20 21 21 15 16 23 24 26 24 25 29 31 31 31 33 32 32 33 35 34 32 33 34 33 31 30 30 29 30 32 33 32 31 31 31 30 29 29 28 25 25
16 16 23 27 25 26 19 19 24 16 12 13 16 15 17 17 14 20 24 26 28 28 29 29 30 31 31 31 32 32 32 33 33 33 33 34 34 34 33 31 29 32 32 32 32 32 31 30 30 30 29 29 28 27
22 23 17 20 22 22 13 13 13 12 17 22 19 12 12 14 17 24 25 27 27 28 28 29 30 29 28 29 29 28 28 28 28 27 29 29 28 29 30 32 31 29 32 33 33 32 32 31 31 30 30 28 26 27
23 24 23 16 15 20 20 20 20 22 24 21 18 15 17 24 25 25 27 26 28 27 26 26 26 29 29 29 29 27 29 30 29 26 25 28 29 29 29 28 30 29 30 31 29 31 31 31 31 31 31 29 28 26
21 23 19 12 14 17 19 22 20 22 26 25 24 24 24 24 24 22 24 23 23 24 23 21 22 27 27 28 29 30 31 30 30 30 28 29 30 28 28 28 29 30 31 31 31 30 28 27 26 26 25 24 24 23
22 22 20 19 18 20 21 18 20 22 19 15 17 19 20 17 20 19 23 23 22 21 22 22 19 22 25 26 28 28 28 32 32 31 32 31 30 28 27 27 29 31 31 30 29 29 28 27 26 24 24 23 22 22
21 19 18 18 19 21 19 20 17 15 14 18 19 17 19 19 17 20 23 28 29 28 29 28 26 25 22 25 27 31 33 32 30 29 29 30 31 31 29 28 28 30 30 29 29 28 27 27 25 24 23 22 21 21
18 21 20 18 17 17 16 16 15 14 10 10 13 13 18 17 14 18 19 27 27 22 25 28 30 30 30 29 27 31 29 31 30 28 25 26 23 24 28 29 30 30 29 29 28 28 26 25 23 22 21 20 19 19
MSLP
1008.48 1008.89 1009.35 1009.88 1010.41 1010.91 1011.41 1011.94 1012.45 1012.94 1013.48 1013.95 1014.39 1014.88 1015.34 1015.80 1016.23 1016.92 1017.61 1017.80 1018.43 1018.88 1018.87 1018.85 1018.89 1019.00 1019.19 1019.21 1019.40 1019.80 1019.84 1019.71 1020.00 1019.89 1019.67 1018.81 1017.83 1016.46 1015.30 1014.31 1013.77 1013.08 1012.72 1011.65 1011.62 1010.66 1009.37 1008.36 1008.92 1008.77 1008.14 1008.29 1008.32 1008.70
1008.54 1008.94 1009.35 1009.81 1010.30 1010.80 1011.31 1011.81 1012.31 1012.83 1013.33 1013.83 1014.31 1014.75 1015.24 1015.71 1016.18 1016.88 1017.62 1017.84 1018.26 1018.98 1018.47 1018.33 1018.19 1018.12 1017.72 1017.92 1018.65 1019.06 1018.92 1018.97 1019.20 1019.43 1019.35 1018.78 1017.77 1016.67 1015.22 1013.85 1012.99 1012.49 1011.58 1011.07 1011.02 1009.39 1009.02 1008.56 1007.78 1007.74 1008.07 1008.23 1008.54 1008.81
1008.49 1008.88 1009.40 1009.92 1010.40 1010.75 1011.19 1011.70 1012.16 1012.67 1013.41 1013.70 1014.13 1014.60 1015.06 1015.52 1016.00 1016.52 1017.21 1017.93 1018.59 1018.58 1017.99 1017.69 1016.98 1016.36 1017.14 1017.20 1017.43 1018.25 1018.39 1018.44 1018.54 1018.71 1019.11 1018.80 1017.89 1016.74 1015.46 1013.84 1012.97 1011.68 1011.30 1010.77 1010.74 1008.67 1008.42 1008.07 1007.95 1008.26 1007.96 1008.16 1008.37 1008.84
1008.46 1008.79 1009.20 1009.62 1010.08 1010.61 1011.16 1011.60 1012.06 1012.59 1013.13 1013.49 1013.92 1014.40 1014.99 1015.44 1015.74 1016.15 1016.89 1017.39 1017.94 1018.09 1017.32 1015.44 1015.11 1015.40 1015.31 1016.19 1016.73 1016.89 1017.06 1017.53 1018.03 1018.61 1018.72 1018.33 1017.63 1016.69 1015.41 1014.44 1013.43 1012.42 1012.28 1010.32 1008.85 1008.24 1008.08 1007.70 1007.68 1007.62 1007.89 1007.90 1008.32 1008.84
1008.43 1008.70 1009.02 1009.44 1009.88 1010.40 1010.92 1011.35 1011.82 1012.35 1012.90 1013.37 1013.74 1014.28 1014.78 1015.15 1015.49 1015.88 1016.42 1016.56 1016.91 1017.50 1016.15 1015.25 1014.74 1014.41 1014.18 1014.69 1015.13 1015.64 1016.43 1016.98 1017.69 1017.89 1017.34 1017.06 1016.87 1016.95 1015.64 1014.61 1011.48 1010.96 1010.46 1009.78 1007.35 1007.36 1007.30 1007.04 1006.97 1007.18 1007.41 1007.72 1008.09 1008.83
1008.43 1008.70 1009.00 1009.42 1010.02 1010.49 1010.94 1011.43 1011.93 1012.41 1012.88 1013.34 1013.77 1014.14 1014.48 1014.88 1015.26 1015.89 1015.81 1015.10 1015.30 1016.00 1016.39 1014.98 1012.98 1012.36 1012.45 1012.91 1013.72 1014.48 1015.13 1015.95 1016.42 1016.55 1016.51 1016.19 1015.95 1015.59 1014.08 1011.32 1009.08 1008.99 1008.90 1008.80 1008.32 1007.84 1007.15 1007.02 1007.09 1007.38 1007.55 1007.90 1008.53 1009.12
1008.37 1008.74 1009.09 1009.54 1010.02 1010.55 1011.03 1011.51 1012.05 1012.54 1012.98 1013.33 1013.67 1013.95 1014.21 1014.46 1014.83 1015.08 1014.34 1013.98 1013.97 1014.98 1015.26 1014.46 1012.45 1010.86 1010.50 1010.99 1011.57 1012.44 1013.45 1014.23 1014.89 1015.26 1014.94 1014.78 1014.48 1014.64 1012.83 1010.04 1008.67 1008.29 1007.92 1007.99 1008.23 1008.17 1007.65 1007.29 1007.20 1007.42 1007.81 1008.33 1008.91 1009.49
1008.31 1008.68 1009.18 1009.69 1010.17 1010.66 1011.18 1011.69 1012.14 1012.54 1012.86 1013.09 1013.30 1013.52 1013.57 1013.46 1013.56 1013.68 1013.33 1013.38 1013.54 1014.15 1014.33 1013.58 1012.07 1011.13 1010.53 1010.19 1010.38 1010.92 1011.70 1013.00 1013.36 1013.33 1013.35 1013.36 1013.61 1013.25 1010.29 1008.42 1007.86 1007.57 1007.43 1007.21 1007.59 1007.56 1007.24 1007.26 1007.52 1007.85 1008.35 1008.88 1009.40 1010.07
1008.30 1008.80 1009.30 1009.80 1010.31 1010.81 1011.29 1011.72 1012.04 1012.31 1012.49 1012.70 1012.81 1012.83 1012.77 1013.00 1012.95 1012.62 1012.39 1012.35 1013.19 1013.75 1013.31 1012.82 1011.89 1010.96 1010.52 1010.15 1009.91 1010.34 1010.52 1011.34 1011.72 1011.75 1011.65 1011.92 1011.41 1009.98 1008.24 1007.23 1006.78 1006.76 1006.73 1006.65 1007.09 1007.36 1007.54 1007.58 1007.66 1008.09 1008.54 1009.05 1009.54 1010.22
1008.47 1008.97 1009.45 1009.97 1010.48 1010.92 1011.28 1011.59 1011.87 1012.05 1012.23 1012.45 1012.45 1012.52 1012.50 1012.29 1012.10 1012.32 1012.60 1012.89 1013.13 1012.86 1012.66 1011.97 1011.64 1011.07 1010.78 1010.37 1010.09 1010.03 1009.82 1009.91 1010.23 1010.19 1010.43 1010.35 1009.22 1007.88 1006.65 1006.61 1006.51 1006.49 1006.67 1006.55 1006.98 1007.40 1007.69 1007.85 1008.02 1008.37 1008.70 1009.31 1009.55 1009.99
1008.46 1009.06 1009.60 1010.14 1010.57 1010.94 1011.23 1011.48 1011.62 1011.72 1012.06 1012.22 1012.29 1012.36 1012.27 1012.13 1012.26 1012.52 1012.70 1012.77 1012.77 1012.54 1011.82 1011.19 1011.07 1010.95 1010.70 1010.45 1010.12 1010.03 1009.67 1009.63 1009.56 1009.77 1009.66 1009.32 1008.28 1007.09 1006.92 1006.74 1006.51 1006.36 1006.46 1006.65 1006.75 1006.96 1007.28 1007.48 1007.96 1008.54 1009.11 1009.52 1009.86 1010.55
1008.61 1009.17 1009.74 1010.22 1010.59 1010.91 1011.18 1011.38 1011.52 1011.66 1011.76 1011.78 1011.88 1012.11 1012.36 1012.47 1012.81 1012.98 1012.79 1012.58 1012.19 1011.43 1010.96 1010.77 1010.60 1010.60 1010.27 1009.98 1009.87 1009.71 1009.43 1009.35 1009.36 1009.64 1009.38 1008.51 1007.34 1007.11 1007.19 1007.08 1006.78 1006.45 1006.35 1006.49 1006.71 1007.02 1007.50 1007.78 1008.12 1008.86 1009.58 1009.83 1010.46 1011.11
1008.94 1009.48 1009.92 1010.30 1010.65 1010.95 1011.14 1011.27 1011.27 1011.26 1011.39 1011.82 1011.91 1012.29 1012.57 1012.93 1013.18 1012.79 1012.30 1011.75 1011.35 1010.74 1010.44 1010.31 1010.31 1010.17 1010.02 1009.81 1009.77 1009.76 1009.62 1009.68 1009.58 1009.40 1008.79 1007.81 1007.43 1007.51 1007.51 1007.44 1007.13 1006.75 1006.80 1007.10 1007.32 1007.71 1008.11 1008.51 1008.86 1009.86 1010.44 1010.91 1011.22 1011.72
1009.20 1009.63 1010.04 1010.36 1010.64 1010.87 1011.00 1011.03 1011.06 1011.05 1011.40 1011.94 1012.15 1012.40 1012.61 1012.50 1012.11 1011.49 1011.18 1010.99 1010.67 1010.24 1010.07 1009.98 1009.95 1010.02 1009.97 1009.99 1009.84 1009.82 1009.77 1009.53 1009.27 1008.91 1008.03 1007.23 1007.30 1007.52 1007.54 1007.54 1007.39 1008.29 1008.16 1008.01 1008.57 1008.85 1009.28 1009.59 1010.72 1011.18 1011.44 1011.57 1011.85 1012.55
1009.53 1009.80 1010.03 1010.31 1010.53 1010.71 1010.82 1010.90 1010.98 1011.12 1011.48 1011.81 1011.98 1011.89 1011.67 1011.07 1010.93 1010.63 1010.50 1010.44 1010.08 1009.96 1009.87 1009.74 1009.61 1009.83 1009.91 1010.10 1009.89 1009.85 1009.61 1009.14 1008.70 1008.03 1007.53 1007.32 1007.52 1007.67 1008.06 1008.44 1009.10 1009.54 1009.40 1009.48 1009.76 1010.01 1010.60 1011.14 1011.67 1012.21 1012.37 1012.50 1012.76 1013.20
1009.80 1010.06 1010.07 1010.13 1010.37 1010.57 1010.71 1010.85 1011.02 1011.36 1011.38 1011.41 1011.28 1010.97 1010.77 1010.83 1010.68 1010.53 1010.14 1009.64 1009.37 1009.37 1009.24 1009.25 1008.86 1008.81 1009.02 1009.10 1009.33 1009.21 1009.33 1008.50 1007.93 1007.67 1007.53 1007.67 1007.94 1008.26 1008.62 1009.15 1009.68 1010.10 1010.14 1010.52 1010.80 1011.09 1011.41 1011.80 1012.08 1012.54 1012.92 1013.19 1013.54 1013.76
1009.83 1009.75 1009.43 1009.60 1009.97 1010.28 1010.51 1010.82 1011.10 1011.25 1011.13 1010.96 1010.39 1010.25 1010.41 1010.39 1010.20 1009.91 1009.67 1009.24 1008.94 1008.92 1008.41 1008.17 1008.05 1007.92 1008.30 1008.41 1008.54 1008.43 1008.07 1007.75 1007.67 1007.84 1007.95 1008.12 1008.30 1008.53 1008.91 1009.57 1010.18 1010.35 1010.74 1010.97 1011.18 1011.51 1011.87 1012.16 1012.37 1012.47 1012.85 1013.72 1013.91 1014.23
1009.33 1009.18 1009.14 1009.24 1009.67 1010.12 1010.30 1010.43 1010.64 1010.57 1010.31 1009.95 1009.91 1009.81 1010.03 1009.77 1009.57 1009.27 1009.03 1008.75 1008.73 1008.14 1007.77 1007.52 1007.73 1007.74 1007.71 1007.65 1007.45 1007.31 1007.47 1007.82 1007.97 1008.12 1008.19 1008.31 1008.34 1008.60 1008.92 1009.44 1009.98 1010.23 1010.48 1010.86 1011.08 1011.49 1011.82 1011.97 1012.15 1012.69 1013.29 1013.82 1014.26 1014.76
1008.99 1009.01 1008.95 1009.14 1009.49 1009.78 1009.84 1009.94 1010.11 1009.79 1009.34 1009.26 1009.19 1009.41 1009.31 1008.93 1008.63 1008.43 1008.35 1008.27 1008.17 1007.93 1007.82 1007.50 1007.58 1007.33 1007.05 1006.84 1006.77 1006.89 1007.56 1007.64 1007.82 1008.12 1008.19 1008.32 1008.42 1008.76 1009.06 1009.46 1009.77 1010.09 1010.44 1010.64 1010.88 1011.27 1011.59 1011.83 1012.24 1012.80 1013.32 1013.76 1014.32 1014.97
1008.24 1008.28 1008.63 1008.83 1009.29 1009.55 1009.47 1009.48 1009.38 1009.32 1008.96 1008.79 1008.84 1008.94 1008.71 1008.49 1008.24 1008.00 1007.84 1007.75 1007.82 1007.93 1007.69 1007.31 1006.86 1006.50 1006.41 1006.34 1006.41 1006.48 1006.77 1007.20 1007.47 1007.89 1008.03 1008.09 1008.40 1008.79 1009.09 1009.31 1009.62 1010.01 1010.32 1010.63 1011.01 1011.32 1011.71 1012.09 1012.42 1012.82 1013.28 1013.77 1014.37 1014.96
1007.92 1007.84 1008.27 1008.80 1009.11 1009.36 1009.49 1009.11 1008.78 1008.60 1008.51 1008.67 1008.47 1008.52 1008.45 1008.25 1008.12 1008.01 1007.75 1007.40 1007.66 1007.50 1007.12 1006.60 1006.36 1006.33 1006.32 1006.44 1006.58 1006.59 1006.70 1006.94 1007.12 1007.21 1007.40 1007.76 1008.25 1008.57 1008.97 1009.34 1009.68 1009.97 1010.24 1010.67 1011.04 1011.39 1011.69 1011.94 1012.36 1012.78 1013.17 1013.64 1014.22 1014.79
1007.86 1007.74 1008.28 1008.68 1009.13 1009.32 1009.25 1008.85 1008.71 1008.44 1008.63 1008.33 1008.43 1008.34 1008.47 1008.60 1008.21 1007.84 1007.58 1007.56 1007.24 1006.75 1006.59 1006.39 1006.23 1006.21 1006.30 1006.35 1006.32 1006.43 1006.55 1006.79 1007.03 1007.24 1007.34 1007.50 1008.04 1008.40 1008.71 1009.04 1009.43 1009.74 1010.05 1010.37 1010.65 1010.98 1011.34 1011.69 1012.14 1012.59 1013.06 1013.70 1014.30 1014.87
1007.53 1007.69 1008.26 1008.74 1009.42 1009.67 1008.98 1008.63 1008.64 1008.20 1008.26 1008.19 1008.26 1008.30 1008.35 1008.32 1007.86 1007.69 1007.65 1007.30 1006.93 1006.70 1006.69 1006.53 1006.27 1006.18 1006.26 1006.27 1006.28 1006.38 1006.48 1006.66 1006.89 1007.08 1007.30 1007.48 1007.72 1008.01 1008.39 1008.78 1009.05 1009.30 1009.62 1009.99 1010.27 1010.65 1011.04 1011.49 1011.98 1012.43 1012.97 1013.60 1014.14 1014.76
1007.44 1007.81 1008.39 1008.77 1008.95 1009.35 1009.20 1008.77 1008.43 1008.25 1008.21 1008.32 1008.41 1008.33 1008.10 1008.00 1007.80 1007.77 1007.56 1007.08 1006.79 1006.81 1006.75 1006.54 1006.42 1006.39 1006.39 1006.33 1006.30 1006.37 1006.49 1006.63 1006.84 1007.06 1007.18 1007.39 1007.61 1007.86 1008.00 1008.29 1008.66 1008.84 1009.10 1009.52 1009.98 1010.35 1010.75 1011.15 1011.65 1012.13 1012.58 1013.11 1013.66 1014.27
1007.84 1008.47 1008.83 1008.95 1009.22 1009.28 1009.20 1009.11 1008.75 1008.49 1008.52 1008.42 1008.50 1008.43 1008.02 1007.99 1008.10 1008.04 1007.63 1007.18 1006.95 1006.99 1006.77 1006.56 1006.44 1006.41 1006.30 1006.23 1006.21 1006.28 1006.03 1006.21 1006.54 1006.77 1006.90 1007.07 1007.30 1007.61 1007.87 1008.12 1008.34 1008.55 1008.93 1009.28 1009.61 1009.95 1010.32 1010.73 1011.16 1011.56 1012.02 1012.53 1013.10 1013.76
1007.85 1008.53 1008.66 1008.68 1008.97 1008.96 1009.05 1009.24 1009.25 1008.90 1008.86 1008.95 1008.75 1008.59 1008.43 1008.40 1008.47 1007.97 1007.32 1006.99 1006.95 1006.99 1006.68 1006.37 1006.24 1006.27 1006.22 1006.09 1006.06 1006.03 1005.94 1006.00 1006.11 1006.37 1006.50 1006.67 1006.90 1007.07 1007.34 1007.70 1008.01 1008.26 1008.44 1008.67 1009.02 1009.37 1009.76 1010.16 1010.55 1010.99 1011.46 1011.97 1012.59 1013.12
1008.09 1008.28 1008.33 1008.35 1008.40 1008.55 1008.93 1008.96 1008.90 1009.05 1009.18 1008.90 1008.75 1008.98 1008.98 1008.87 1008.49 1007.54 1006.90 1006.72 1006.71 1006.55 1006.45 1006.41 1006.33 1006.28 1006.22 1006.07 1005.89 1005.78 1005.71 1005.85 1005.97 1006.12 1006.10 1006.30 1006.54 1006.66 1006.91 1007.28 1007.49 1007.59 1007.72 1008.08 1008.47 1008.75 1009.10 1009.55 1009.97 1010.37 1010.79 1011.34 1011.89 1012.41
1007.69 1007.98 1008.28 1008.53 1008.53 1008.51 1008.70 1008.80 1008.85 1008.94 1008.45 1008.35 1008.68 1008.87 1008.67 1008.32 1007.84 1007.11 1006.73 1006.40 1006.38 1006.50 1006.52 1006.48 1006.45 1006.40 1006.31 1006.15 1006.09 1006.03 1006.14 1006.12 1006.26 1006.32 1006.46 1006.76 1006.96 1006.96 1006.91 1006.93 1007.08 1007.20 1007.40 1007.71 1007.99 1008.37 1008.72 1009.05 1009.45 1009.85 1010.29 1010.74 1011.35 1011.93
1007.83 1007.90 1008.19 1008.62 1008.60 1008.57 1008.46 1008.46 1008.47 1008.15 1008.01 1008.19 1008.36 1008.18 1007.95 1007.66 1007.18 1006.76 1006.48 1006.43 1006.50 1006.66 1006.87 1006.74 1006.31 1006.40 1006.35 1006.25 1006.10 1006.03 1006.08 1006.07 1006.33 1006.48 1006.55 1006.64 1006.91 1006.91 1006.92 1007.06 1007.04 1007.25 1007.40 1007.66 1007.97 1008.19 1008.49 1008.83 1009.13 1009.44 1009.83 1010.35 1010.90 1011.54
1008.26 1008.18 1008.22 1008.60 1008.59 1008.44 1008.28 1008.30 1008.43 1008.30 1008.16 1008.14 1008.13 1007.94 1007.73 1007.32 1006.76 1006.80 1006.73 1006.81 1006.96 1007.07 1007.06 1006.89 1006.57 1006.47 1006.30 1006.23 1006.01 1005.92 1005.91 1005.96 1006.03 1006.08 1006.10 1006.16 1006.25 1006.36 1006.49 1006.74 1006.92 1007.09 1007.30 1007.52 1007.92 1008.29 1008.71 1009.07 1009.50 1009.81 1010.15 1010.60 1011.11 1011.67
1009.25 1008.39 1008.19 1008.37 1008.47 1008.32 1008.35 1008.43 1008.53 1008.55 1008.62 1008.64 1008.55 1008.50 1008.39 1008.15 1007.32 1007.28 1007.15 1007.21 1007.21 1007.20 1007.15 1006.89 1006.56 1006.42 1006.33 1006.15 1005.90 1005.73 1005.64 1005.56 1005.58 1005.63 1005.72 1005.84 1005.98 1006.14 1006.32 1006.49 1006.62 1006.83 1007.10 1007.36 1007.73 1008.10 1008.57 1009.06 1009.41 1009.85 1010.27 1010.64 1011.14 1011.55
1009.88 1009.43 1009.12 1008.85 1008.77 1008.56 1008.71 1008.80 1008.90 1009.02 1008.99 1009.02 1008.90 1008.93 1008.86 1008.76 1008.37 1007.58 1007.47 1007.10 1007.00 1007.06 1006.92 1006.63 1006.37 1006.16 1006.03 1005.84 1005.63 1005.43 1005.06 1004.94 1005.03 1005.20 1005.37 1005.52 1005.59 1005.72 1005.86 1006.11 1006.44 1006.65 1006.88 1007.21 1007.61 1008.00 1008.43 1008.79 1009.26 1009.76 1010.20 1010.68 1011.19 1011.59
1010.68 1010.12 1009.80 1009.60 1009.42 1009.28 1009.25 1009.36 1009.49 1009.60 1009.63 1009.61 1009.66 1009.59 1009.45 1009.37 1008.88 1008.17 1007.71 1007.25 1007.40 1007.46 1007.17 1006.61 1006.36 1006.02 1005.69 1005.47 1005.27 1005.04 1004.96 1004.84 1004.77 1004.83 1004.96 1005.04 1005.17 1005.44 1005.69 1005.88 1006.08 1006.28 1006.61 1006.99 1007.34 1007.74 1008.23 1008.72 1009.22 1009.73 1010.22 1010.72 1011.22 1011.69
Wind_Speed
13 14 13 13 13 13 14 14 13 13 14 13 12 11 10 9 9 4 2 4 3 2 3 5 5 5 4 5 5 4 1 0 2 6 4 4 5 7 9 10 10 12 7 4 6 10 16 7 6 10 3 4 3 2
10 11 11 11 12 12 14 13 12 9 14 13 13 12 11 11 10 7 2 2 3 2 4 3 8 11 14 9 5 5 4 4 4 3 1 2 3 3 5 10 6 12 11 4 8 6 2 5 3 3 4 3 3 2
8 10 9 7 5 8 12 12 12 13 14 12 12 13 12 10 10 10 3 4 3 2 6 10 13 16 9 13 11 7 4 7 6 4 3 3 8 3 5 7 9 9 6 8 5 13 16 9 4 6 3 3 2 1
8 10 12 13 17 15 14 15 17 17 16 13 13 13 12 12 12 11 4 4 4 1 5 5 8 11 16 14 16 16 15 6 7 5 6 6 6 5 6 8 9 7 8 12 11 10 7 9 9 5 6 4 2 2
8 9 10 10 11 12 12 11 11 10 9 11 11 11 10 8 9 4 2 5 8 6 3 3 6 7 8 17 21 20 16 13 6 6 6 8 6 8 9 8 16 9 18 9 9 7 5 3 5 4 3 2 1 1
7 8 10 14 13 11 10 11 11 11 11 9 8 8 8 10 10 2 4 9 12 10 5 5 5 10 15 18 20 20 16 11 9 6 6 6 9 5 6 11 11 12 10 5 4 6 3 2 3 4 4 4 3 4
9 9 10 12 13 13 12 13 12 11 9 8 8 8 9 10 6 6 5 0 8 10 2 4 5 3 5 12 11 11 15 7 6 6 7 6 8 12 8 18 8 8 6 6 7 4 1 3 3 6 4 3 5 5
11 13 14 14 14 13 13 12 10 8 8 8 8 9 13 14 7 4 8 13 5 3 3 3 6 3 3 3 3 5 7 7 8 5 5 10 6 6 9 8 14 12 13 9 8 8 2 2 4 3 3 5 5 6
13 15 14 14 14 13 11 10 8 6 5 6 6 9 4 3 2 3 5 4 5 3 3 4 3 4 0 2 1 3 4 5 6 8 7 8 8 10 11 15 14 13 10 4 4 5 5 7 7 6 6 7 7 8
14 14 15 14 13 12 10 9 7 5 6 3 4 1 1 2 7 12 1 2 1 1 2 3 1 4 1 1 1 1 0 3 4 4 6 6 5 10 12 4 2 2 6 5 4 3 4 4 8 9 9 6 5 7
17 17 15 14 12 10 7 5 2 2 2 1 2 2 1 3 2 1 1 2 2 3 3 3 4 2 1 1 0 1 2 2 4 3 2 3 5 3 2 7 7 7 6 8 6 2 6 4 9 9 8 7 8 9
18 16 14 13 11 8 5 4 3 2 2 1 0 2 2 2 2 1 2 1 4 4 2 2 2 3 2 2 1 1 0 0 1 2 3 3 3 1 5 6 9 7 7 9 8 7 4 4 6 7 7 8 8 7
16 14 12 11 9 6 5 5 5 6 1 2 1 1 1 1 2 5 5 3 2 2 2 2 2 2 1 1 0 2 2 2 1 1 3 4 2 3 2 2 6 6 4 7 6 6 8 7 9 4 7 5 9 8
14 12 10 9 7 5 4 4 2 0 2 1 2 4 4 3 5 5 3 3 2 3 2 2 1 1 0 1 0 0 2 2 2 3 4 2 1 1 3 5 9 6 5 9 7 8 8 10 7 5 5 6 9 8
11 10 8 7 7 6 4 3 2 2 2 3 3 5 6 5 3 3 3 2 3 3 2 2 3 3 2 2 2 1 2 3 4 4 2 1 2 3 4 4 2 0 4 5 4 6 7 7 9 8 5 5 7 7
4 3 6 9 9 7 6 2 2 1 1 2 4 4 2 0 2 2 2 3 1 3 3 2 3 4 4 3 4 6 3 5 3 3 1 1 3 4 4 4 3 2 5 6 6 6 6 5 7 9 7 7 6 6
8 3 3 10 12 10 8 2 2 3 3 3 4 2 2 2 3 3 3 3 2 1 4 4 5 4 3 2 4 5 5 3 2 2 2 5 7 6 5 5 3 7 7 7 7 7 7 7 6 7 10 6 7 7
4 4 5 10 9 4 3 4 3 3 6 5 4 3 3 3 3 2 3 2 2 2 2 1 2 3 4 4 3 3 3 1 2 3 3 3 4 5 6 8 5 7 9 7 8 8 7 6 7 6 9 7 7 6
3 3 6 8 6 2 3 5 4 3 5 2 2 2 3 3 3 2 2 2 3 2 2 2 2 3 3 3 4 2 2 3 3 4 3 2 3 5 6 5 6 7 7 6 6 5 4 5 6 5 5 5 5 4
12 13 12 10 7 2 3 3 3 3 3 3 1 2 3 2 1 1 2 3 3 1 3 4 4 3 3 2 3 2 2 5 5 3 2 3 3 6 7 8 6 7 6 6 5 5 5 5 4 5 5 5 5 5
5 1 8 6 4 3 2 2 3 3 2 3 1 2 2 1 2 1 2 3 2 3 3 3 3 2 2 1 1 1 3 6 5 3 3 3 4 5 6 6 7 6 5 5 5 5 5 5 5 5 6 5 4 5
3 3 3 3 1 2 3 3 3 1 1 1 1 2 1 1 2 2 1 2 3 3 3 2 2 1 1 2 2 3 2 5 4 2 3 6 5 5 6 6 7 6 6 6 6 6 5 5 6 6 5 5 6 6
6 3 3 3 2 2 5 1 3 3 2 2 1 1 2 2 3 1 2 3 3 1 1 1 1 0 2 1 2 3 2 4 3 3 3 3 3 4 5 6 6 6 6 6 5 5 5 6 7 6 6 6 6 6
1 4 5 5 5 5 1 2 2 2 0 2 2 3 2 2 0 1 3 3 2 1 1 1 1 1 1 2 1 2 2 2 2 2 3 4 4 5 5 6 6 5 5 5 5 5 6 7 8 7 8 8 7 7
3 3 4 4 3 2 4 1 2 3 3 3 3 3 2 1 1 2 3 3 1 1 1 1 2 1 1 1 1 3 5 4 3 2 3 4 2 3 4 4 5 5 5 6 7 7 7 7 7 8 9 9 10 10
4 3 5 5 3 4 5 4 5 6 2 2 4 1 2 1 1 5 3 2 2 2 2 2 2 2 2 3 2 2 3 3 3 3 3 5 5 4 5 6 5 5 6 6 6 8 9 8 8 11 9 10 10 10
2 3 2 2 2 3 1 1 2 2 3 5 3 2 2 3 5 4 2 3 3 3 1 0 0 2 2 2 2 2 2 3 3 2 1 3 4 4 4 5 6 4 6 8 7 7 9 9 9 9 8 8 9 10
3 2 3 2 2 1 4 2 3 5 4 2 4 3 6 7 5 3 4 2 2 1 1 1 2 2 3 2 3 1 2 3 3 3 4 3 2 1 2 3 3 6 6 7 7 6 6 7 8 9 9 8 7 8
1 0 3 2 1 2 4 5 4 3 2 3 4 3 4 3 2 2 2 2 2 1 2 3 3 2 2 2 2 2 2 4 6 5 5 3 2 3 4 3 3 3 3 5 5 6 7 5 6 7 9 7 7 7
3 1 1 1 3 3 2 2 2 1 1 1 1 2 2 3 2 2 2 2 1 3 3 3 2 2 3 2 3 4 2 3 4 4 4 6 5 2 4 5 5 4 4 5 6 6 7 5 5 4 5 5 6 6
5 3 1 0 2 2 2 2 1 1 0 1 1 2 3 4 4 1 2 2 1 1 2 4 3 3 4 4 4 4 4 3 6 7 5 3 3 3 3 4 4 5 6 6 7 7 7 6 5 7 7 8 8 8
4 6 4 1 2 2 2 1 2 2 2 1 1 1 1 1 3 2 0 3 4 5 6 3 3 4 3 5 4 4 3 2 4 5 7 5 4 4 3 4 5 5 7 7 7 7 9 9 7 8 8 9 9 9
3 1 2 4 4 6 3 3 4 4 3 2 2 1 1 1 4 2 3 2 3 2 4 4 5 5 6 6 5 4 4 4 4 4 5 5 6 5 4 4 6 7 9 8 8 8 10 10 8 8 8 8 9 9
Wind_Direction
184 185 182 177 182 182 181 182 185 184 182 180 176 174 176 178 169 129 115 165 144 195 227 200 199 167 160 173 167 176 54 353 136 201 209 208 227 227 242 242 258 252 241 247 257 235 238 169 108 203 190 191 162 249
181 183 185 180 180 183 185 183 178 178 192 188 188 187 189 188 194 136 184 144 123 207 251 210 231 221 217 189 162 205 195 170 183 180 183 297 291 294 294 277 253 243 225 271 209 226 250 235 208 192 185 158 195 242
177 171 168 166 199 193 185 189 187 181 222 210 200 201 204 207 211 195 156 137 106 248 264 239 235 230 224 213 200 215 198 213 210 169 184 239 247 253 257 257 302 260 205 223 233 241 240 225 221 228 195 211 208 194
176 177 190 200 197 198 203 215 203 200 215 215 211 207 206 223 231 215 185 168 171 239 258 258 215 230 220 215 209 213 226 207 222 201 227 226 234 228 258 287 280 267 317 243 240 263 304 243 222 200 208 185 177 135
191 183 182 171 169 181 193 187 180 184 203 220 207 196 211 217 226 221 178 189 189 210 251 274 280 229 204 208 212 211 214 217 213 210 211 225 237 246 253 266 256 246 252 236 240 228 203 245 175 157 152 216 54 226
188 184 179 161 157 151 145 152 158 163 153 155 171 195 219 233 237 192 253 198 199 191 257 245 256 243 235 205 207 207 206 210 206 202 216 221 236 222 255 261 260 236 215 234 300 277 203 111 147 159 176 210 206 178
174 170 168 167 158 156 159 149 149 154 164 182 209 227 240 249 242 201 218 216 206 176 210 257 264 253 241 213 210 202 194 191 194 202 207 217 191 201 241 252 280 259 199 233 224 225 248 210 217 197 189 125 97 103
171 161 152 149 151 152 152 155 160 172 191 220 225 247 262 265 244 214 228 252 146 136 191 250 263 294 132 239 192 161 168 173 184 189 185 206 211 226 260 263 238 209 227 219 213 220 219 117 178 144 122 139 139 150
161 154 152 150 151 154 155 161 177 195 222 243 281 271 230 171 175 223 171 149 154 222 202 220 245 278 217 304 41 152 156 157 147 201 197 168 189 220 229 230 225 209 196 167 141 188 205 214 212 196 177 175 168 173
149 153 150 151 154 160 168 174 187 210 240 316 271 110 219 212 146 124 131 146 189 215 244 253 166 265 20 343 319 237 299 136 184 164 136 209 251 244 252 275 294 189 195 144 145 191 180 189 187 188 197 204 185 155
160 159 155 157 160 164 167 184 204 328 82 171 190 208 293 330 87 34 214 211 168 245 210 237 209 252 198 265 247 239 181 178 190 159 209 202 247 256 338 312 299 285 227 205 219 260 205 185 173 165 161 166 157 159
162 160 158 160 160 160 171 188 235 159 183 173 81 74 28 89 66 207 222 262 217 246 197 216 251 206 263 214 294 22 43 287 126 161 190 253 250 328 342 312 305 283 234 203 203 183 170 134 139 130 145 137 139 131
151 150 155 156 158 168 188 210 232 237 81 62 106 166 131 259 53 191 211 213 228 210 217 204 229 214 283 299 27 345 64 224 122 160 233 233 245 287 309 346 14 15 113 118 106 106 105 101 80 111 122 114 124 113
145 150 157 161 169 187 200 251 304 80 104 115 174 266 184 230 238 201 201 189 231 237 253 207 272 213 180 281 296 88 256 253 235 234 246 250 265 232 42 39 46 21 62 88 92 100 95 87 81 66 92 122 118 117
140 145 162 183 195 201 250 222 306 68 137 200 206 233 219 228 252 241 211 211 210 200 189 206 205 171 155 262 222 240 216 235 233 238 251 248 177 126 81 55 86 162 82 80 96 93 101 107 114 103 74 90 103 113
156 195 225 205 201 208 221 209 80 57 242 223 223 236 207 32 294 313 270 265 188 200 160 206 210 197 179 199 184 203 203 226 239 222 242 290 194 160 144 157 151 162 123 120 110 115 108 109 116 114 99 82 84 105
184 240 217 206 203 204 206 180 128 210 230 229 244 225 200 249 235 225 194 232 154 208 213 198 187 200 114 194 220 187 212 213 190 187 219 218 201 174 150 148 166 145 126 121 118 113 112 122 135 111 92 89 95 95
219 226 269 187 178 161 186 198 203 212 236 226 238 205 196 220 208 231 227 203 205 257 260 137 148 190 201 200 229 227 214 169 192 186 184 200 189 164 160 159 140 147 132 133 128 130 136 131 98 96 114 114 102 102
275 263 229 174 164 181 208 181 223 240 232 227 240 206 219 237 226 215 202 196 218 251 278 216 211 220 227 215 221 202 194 189 172 179 180 197 155 157 144 140 139 139 141 143 133 134 129 122 126 130 131 135 124 135
284 246 233 191 147 192 221 210 184 233 245 233 207 211 223 210 271 247 240 193 170 173 236 224 221 221 198 228 204 188 157 156 144 151 191 147 142 154 160 153 151 141 128 115 113 118 117 116 123 136 140 140 146 167
335 258 167 165 193 190 279 262 242 214 222 218 230 210 269 338 285 242 234 163 169 218 238 229 243 244 233 279 260 168 158 166 184 177 174 158 153 159 158 155 148 149 144 146 153 149 152 160 155 155 157 157 149 151
232 146 107 146 135 204 251 228 239 278 211 232 219 191 213 264 256 229 181 151 232 231 210 212 241 175 235 247 207 200 180 176 164 141 97 122 150 166 170 164 163 165 165 177 176 176 176 168 163 159 152 134 139 143
143 121 111 128 109 229 255 128 217 213 216 257 45 251 254 233 223 165 230 220 249 254 278 283 299 228 235 209 117 97 133 164 187 192 178 177 162 152 154 170 175 174 181 189 176 169 171 159 160 157 149 145 148 147
102 158 160 188 170 233 350 241 225 223 60 205 192 264 241 232 227 83 243 241 253 270 274 260 201 118 84 133 148 153 138 150 171 184 189 165 172 191 182 178 188 193 184 157 174 172 168 173 165 168 169 167 169 166
133 256 125 231 284 176 189 245 308 214 229 217 188 275 267 53 191 245 241 278 307 300 295 252 190 249 241 200 194 221 181 156 178 205 193 193 167 138 177 184 195 195 166 168 182 180 181 176 178 177 178 179 177 178
189 237 150 192 200 183 191 191 210 213 191 230 233 317 9 117 76 247 230 213 225 223 246 213 191 182 217 211 223 217 212 188 155 170 193 186 189 180 180 187 196 210 194 186 175 185 183 181 182 181 186 186 178 175
213 263 204 199 184 165 160 250 182 123 179 207 216 142 107 203 243 252 273 217 208 216 199 237 288 226 246 280 270 268 224 166 175 197 201 180 187 184 169 181 204 228 171 180 177 178 182 182 185 187 187 184 184 184
223 170 184 209 208 194 164 152 178 210 229 190 112 172 180 195 233 238 220 255 205 179 193 252 265 259 275 282 294 178 104 109 94 95 96 79 44 322 217 175 172 166 169 181 180 172 173 175 180 183 183 183 180 181
303 265 152 175 284 220 211 193 215 226 181 146 163 216 235 227 231 229 251 214 175 190 263 270 262 241 281 284 259 212 171 164 161 176 197 209 250 259 200 212 179 170 167 162 161 163 171 168 172 181 183 179 170 160
318 216 165 169 170 223 262 189 246 258 244 226 252 303 304 278 259 345 356 15 315 269 273 272 268 242 261 263 269 261 222 211 221 211 204 216 215 232 183 185 188 178 163 155 153 141 116 110 109 103 125 129 143 152
297 302 10 57 229 228 235 280 261 242 355 315 332 206 247 313 314 27 42 48 41 22 1 349 324 274 253 238 224 241 266 231 219 224 212 203 184 207 216 199 187 168 165 160 159 160 154 157 158 154 160 162 163 160
318 350 320 310 299 301 8 9 344 339 334 324 295 314 296 333 290 297 358 -0 16 17 5 347 329 325 257 249 266 270 258 195 192 209 205 214 218 221 207 175 174 174 167 164 164 163 168 165 164 167 170 171 170 169
298 301 315 337 341 347 334 10 28 337 -0 338 293 274 303 255 242 284 313 354 17 340 337 347 330 315 311 294 264 282 264 250 240 187 196 198 196 186 176 174 174 171 170 174 173 168 168 166 163 165 162 162 164 163